SCP
0 0 0 0 0 0 0 0 0 0 0 0 0 0 0 0 0 0 0 1 1 0 0 0 0 0 0 0 0 0 0 0 0 0 0 0 0 0 0 0 0 -0 0
0 0 0 0 0 0 0 0 0 0 0 0 0 0 0 0 0 0 0 1 0 0 0 0 0 0 0 0 0 0 0 0 0 0 0 0 0 0 0 0 -0 -0 -0
0 0 0 0 0 0 0 0 0 0 0 0 0 0 0 0 0 0 0 0 1 0 0 1 1 0 0 0 0 0 0 0 0 0 0 0 0 0 0 -0 -0 -0 -0
0 0 0 0 0 0 0 0 0 0 0 0 0 0 0 0 0 0 0 0 1 1 1 0 1 0 0 0 0 0 0 0 0 0 0 0 0 0 0 0 -0 0 -0
0 0 0 0 0 0 0 0 0 0 0 0 0 0 0 0 0 0 0 1 0 0 0 0 0 0 0 0 0 0 0 0 0 0 0 0 0 0 0 0 0 0 0
1 0 1 0 0 0 0 0 0 0 0 0 0 0 0 0 0 0 0 0 0 0 0 0 0 0 0 0 0 0 0 0 0 0 0 0 0 0 0 0 0 0 0
2 1 1 0 0 0 0 0 0 0 0 0 0 0 0 0 0 0 0 0 0 0 0 0 0 0 0 0 0 0 0 0 -0 -0 0 0 0 0 0 0 -0 -0 0
3 2 1 1 1 1 0 0 0 0 0 0 0 0 0 0 0 0 0 0 0 0 0 0 0 0 0 0 0 0 0 0 0 0 0 0 0 0 0 0 -0 -0 0
3 2 2 2 1 1 0 0 0 0 0 0 0 0 0 0 0 0 0 0 0 0 0 0 0 0 0 0 0 0 0 0 0 -0 0 0 0 0 0 0 0 0 0
4 3 2 2 2 1 1 1 0 0 0 0 0 0 0 0 0 0 0 0 0 0 0 0 0 0 0 0 0 0 0 0 -0 -0 0 0 0 0 0 0 0 -0 0
3 3 2 1 2 1 1 1 0 0 0 0 0 0 0 0 0 0 0 0 0 0 0 0 0 0 0 0 0 0 0 -0 -0 0 0 0 0 -0 0 -0 -0 0 -0
3 2 2 1 1 1 1 1 0 0 0 0 0 0 0 0 0 0 0 0 0 0 0 0 0 0 0 0 0 0 0 0 0 0 0 0 0 0 -0 0 -0 -0 -0
2 1 1 1 1 1 1 0 0 0 0 0 0 0 0 0 0 0 0 0 0 0 0 0 0 0 -0 0 0 0 0 0 0 0 0 0 0 0 -0 -0 -0 -0 -0
1 1 1 1 1 1 1 0 0 0 0 0 0 0 0 0 0 0 0 0 0 0 0 0 0 -0 0 0 0 0 0 -0 0 0 0 -0 0 0 0 0 -0 -0 0
0 1 1 1 1 1 0 0 0 0 0 0 0 0 0 0 0 0 0 0 0 0 -0 0 0 0 0 0 0 0 0 0 0 0 0 0 -0 0 0 0 0 0 0
1 1 1 1 1 1 0 0 0 0 0 0 0 0 0 0 0 0 0 0 0 0 -0 -0 0 0 -0 0 0 0 0 0 0 0 0 -0 0 0 0 0 0 0 0
0 1 1 1 0 0 0 0 0 0 0 0 0 0 0 0 0 0 0 0 0 0 0 0 0 0 0 0 0 0 0 0 0 0 0 -0 -0 0 0 0 -0 0 0
1 1 0 0 0 0 0 0 0 0 0 0 0 0 0 0 0 0 0 0 0 -0 0 0 0 0 0 0 0 0 0 0 0 0 0 -0 0 0 0 0 0 0 0
1 0 0 0 0 0 0 0 0 0 0 0 0 0 0 0 0 0 0 0 0 0 0 0 0 0 0 0 0 0 0 0 0 0 0 0 0 0 0 0 0 0 0
0 0 0 0 0 0 0 0 0 0 0 0 0 0 0 0 0 0 0 0 0 0 0 0 0 0 0 0 0 0 0 0 0 0 0 0 0 0 0 0 0 0 0
0 0 0 0 0 0 0 0 0 0 0 0 0 0 0 0 0 0 0 0 0 0 0 0 0 0 0 0 0 0 0 0 0 0 0 0 0 0 0 0 0 0 0
0 0 0 0 0 0 0 0 0 0 0 0 0 0 0 0 0 0 0 0 0 0 0 0 0 0 0 0 0 0 0 0 0 0 0 0 0 0 0 0 0 0 0
0 0 0 0 0 0 0 0 0 0 0 0 0 0 0 0 0 0 0 0 0 0 0 0 0 0 0 0 0 0 0 0 0 0 0 0 0 0 0 0 0 0 0
0 0 0 0 0 0 0 0 0 0 0 0 0 0 0 0 0 0 0 0 0 0 0 0 0 0 0 0 0 0 0 0 0 0 0 0 0 0 0 0 0 0 0
0 0 0 0 0 0 0 0 0 0 0 0 0 0 -0 -0 0 0 0 0 0 0 0 0 0 0 0 0 0 0 0 0 0 0 0 0 0 0 0 0 0 0 0
0 0 0 0 0 0 0 0 0 0 0 0 0 0 0 -0 0 0 0 0 0 0 0 0 0 0 0 0 0 0 0 0 0 0 0 0 0 0 0 0 0 0 0
Wind_Speed_500mb
56 56 54 54 57 53 55 55 57 56 58 58 58 51 45 39 35 33 32 30 23 20 22 26 28 31 29 22 31 32 32 33 32 29 28 30 34 44 40 40 35 35 35
51 49 46 45 47 41 44 46 45 44 44 44 49 45 39 39 36 33 33 35 33 33 30 30 32 26 27 22 30 35 35 36 34 31 32 32 33 45 44 37 34 38 34
53 49 45 46 48 40 41 41 40 38 39 36 37 32 30 30 37 41 42 39 42 41 37 34 33 29 28 24 28 36 38 39 37 33 34 34 35 47 46 36 32 36 33
56 52 51 54 54 46 44 44 42 42 42 38 33 28 31 32 35 40 42 40 47 45 38 37 38 33 28 25 26 33 40 40 39 36 32 33 37 40 45 32 32 28 35
60 60 59 57 61 55 51 46 44 46 45 40 37 34 34 39 41 43 43 48 46 41 44 42 40 35 30 26 25 31 39 43 40 37 34 33 35 39 46 33 30 24 20
65 62 62 63 63 63 57 51 48 46 51 36 39 44 42 40 41 51 49 51 45 47 43 41 40 42 34 32 27 26 36 43 42 38 37 34 31 43 38 33 28 22 15
67 61 64 67 63 63 59 50 47 53 53 47 38 41 47 53 53 50 52 48 43 38 37 34 35 39 35 35 32 27 34 39 43 40 40 37 37 41 34 30 27 23 22
63 64 60 61 58 58 56 49 49 56 59 48 45 42 41 50 54 56 53 46 41 40 38 38 39 44 46 43 39 33 35 38 40 41 40 38 41 42 39 33 30 23 27
62 60 56 55 54 53 53 48 52 52 57 51 51 44 21 26 35 40 38 37 39 42 41 41 47 49 44 43 40 29 35 39 40 39 39 36 38 39 41 36 30 22 32
58 63 62 56 49 48 49 48 50 51 49 53 50 53 52 33 16 9 22 29 33 33 35 30 34 35 40 43 40 39 37 40 41 39 39 36 38 38 42 38 33 34 29
64 60 60 55 45 46 49 42 39 44 47 49 51 52 46 47 50 39 31 27 27 28 25 25 26 31 36 46 41 41 42 41 43 42 39 35 43 45 44 40 39 43 31
59 59 57 51 43 44 44 39 41 37 38 39 44 45 42 48 39 34 32 31 26 28 26 25 27 30 32 34 32 31 37 42 42 42 36 38 43 48 46 41 42 42 39
55 61 54 50 44 40 39 39 40 40 38 38 37 40 41 33 33 32 30 27 25 21 19 23 18 23 35 38 35 39 34 40 41 39 37 43 45 47 48 44 45 34 42
54 53 51 46 40 42 45 39 36 34 35 32 34 38 34 34 34 29 30 30 25 22 18 16 21 19 27 28 33 34 34 38 41 40 38 52 46 48 46 43 40 35 42
49 47 43 42 39 46 43 37 34 35 32 31 33 30 33 36 33 31 29 25 22 18 18 18 22 18 24 34 39 38 35 36 42 39 40 42 40 45 44 44 44 45 40
49 46 42 38 40 47 41 37 31 28 29 30 31 33 33 33 33 31 25 22 20 23 15 18 24 16 13 46 32 31 30 33 37 38 42 43 38 38 39 44 45 44 43
48 44 42 46 46 42 37 31 26 27 29 31 32 29 27 28 28 29 26 22 23 20 21 18 21 25 31 32 33 32 27 31 37 38 41 41 48 41 36 44 47 43 34
43 43 49 47 42 36 34 28 25 26 27 29 28 29 26 29 27 27 27 25 24 21 23 21 27 38 33 31 28 29 29 30 38 38 35 41 47 36 39 41 43 39 31
48 47 48 46 40 29 26 24 19 18 16 20 26 27 27 30 29 29 27 29 26 25 26 28 40 43 44 38 35 35 33 32 33 38 35 40 40 35 37 35 39 35 36
51 49 45 36 27 22 23 19 21 21 23 24 24 26 30 32 31 30 28 29 29 23 24 35 46 47 49 43 39 40 40 38 40 41 39 33 37 38 37 40 35 38 34
49 43 40 38 32 30 25 29 27 25 27 29 29 29 32 33 33 31 30 33 33 28 31 46 48 49 50 46 43 45 46 43 42 42 39 40 39 41 42 40 40 38 36
51 53 41 38 33 26 27 25 24 29 25 23 24 25 25 33 35 38 34 37 37 38 38 50 53 50 47 49 43 48 49 47 45 41 46 41 39 40 42 39 36 34 32
48 43 39 34 28 26 21 22 21 18 16 18 23 30 28 30 24 27 35 37 34 32 30 34 50 53 51 49 50 47 51 55 55 50 47 45 41 40 38 37 34 32 30
44 43 33 30 25 23 23 18 15 14 10 11 15 25 26 27 28 22 32 31 31 31 29 34 39 42 41 44 42 43 55 54 49 49 46 45 49 42 42 39 35 32 32
41 36 33 29 23 21 20 19 16 13 12 13 15 25 26 33 29 27 33 36 37 31 27 25 35 38 37 39 40 42 53 56 53 50 50 51 46 45 46 37 35 33 30
42 36 29 21 21 20 20 15 12 14 15 20 24 25 22 28 32 27 32 41 42 35 36 36 36 33 36 39 35 35 50 54 62 50 54 50 48 48 35 38 36 32 30
Wind_Direction_500mb
260 260 263 265 264 263 263 264 262 260 261 264 264 261 262 257 232 231 243 261 279 262 273 292 301 303 308 270 241 228 222 217 218 214 218 226 228 225 214 213 220 229 232
261 261 262 264 266 269 270 267 260 258 261 268 269 260 261 254 230 234 244 255 281 280 278 282 279 286 296 272 242 231 224 220 220 218 222 225 227 220 216 219 230 228 231
263 269 271 272 274 276 274 270 259 254 254 266 265 253 246 250 238 249 255 258 269 267 265 266 269 280 289 277 247 235 226 222 223 221 225 226 226 219 218 220 230 231 228
266 272 276 279 277 269 270 269 264 258 256 257 257 254 242 245 249 260 261 261 263 255 259 266 270 277 283 275 254 238 229 224 224 223 225 227 224 223 213 235 229 228 222
266 271 276 278 279 268 263 268 263 255 253 254 258 253 242 244 248 263 266 269 258 266 269 270 265 258 264 270 266 242 228 225 223 220 221 226 223 220 210 227 221 227 233
263 266 271 270 270 263 257 258 256 253 251 257 265 258 251 254 250 264 267 266 272 272 266 257 252 253 248 258 252 245 226 221 221 221 221 224 215 199 216 225 217 228 209
255 268 272 266 263 258 255 259 255 246 252 251 250 241 245 249 255 266 266 269 274 267 260 259 258 244 247 252 247 249 223 220 220 217 220 221 208 201 208 208 213 211 208
264 272 268 267 262 255 250 245 242 241 245 248 230 232 241 254 260 267 267 272 260 262 259 264 261 253 255 248 245 247 221 218 218 218 216 220 211 210 210 207 211 205 205
267 262 262 262 259 256 249 247 243 234 237 240 243 238 240 248 264 270 267 263 259 261 264 265 261 256 247 244 236 231 220 216 217 217 214 219 210 212 211 216 210 215 209
258 257 257 257 255 250 243 251 239 235 236 240 240 238 242 246 236 278 268 274 264 262 265 269 254 245 238 238 231 230 222 218 214 216 215 217 206 202 204 199 194 200 192
250 256 248 248 244 240 245 236 232 233 237 243 244 240 237 243 249 258 277 279 270 260 266 265 258 246 240 232 236 236 226 216 210 212 212 211 202 196 196 190 184 193 191
242 245 240 240 240 242 243 222 229 231 235 246 248 244 246 245 245 245 256 272 281 280 267 262 257 239 229 223 230 225 216 206 206 213 210 207 200 193 197 191 196 197 195
234 230 236 237 242 251 212 224 223 229 233 246 238 233 237 245 245 252 256 262 274 278 271 252 244 234 224 237 218 212 202 200 202 208 201 201 201 197 196 198 192 192 188
235 236 239 243 242 223 218 226 222 220 230 230 226 233 238 242 243 244 247 252 263 256 265 248 232 245 236 207 205 204 199 200 198 200 199 194 196 199 195 189 186 189 193
237 235 242 237 229 199 218 215 215 218 225 225 229 238 240 240 240 245 257 244 245 238 248 245 234 233 215 195 188 195 196 201 199 196 193 192 196 199 187 187 189 189 194
236 231 228 216 200 200 210 201 210 216 221 232 237 238 239 236 241 249 237 234 239 244 249 244 228 198 147 175 182 183 183 184 184 188 187 185 192 195 193 183 186 189 191
226 225 203 190 194 195 193 195 206 219 232 233 236 227 232 231 240 241 238 233 227 229 237 226 209 184 172 160 170 170 173 183 178 180 183 178 190 196 199 182 185 187 190
210 189 184 186 187 194 196 209 217 238 233 231 225 227 233 234 238 232 232 230 220 223 230 209 190 181 184 171 173 167 178 177 185 183 179 183 190 197 188 180 182 188 192
178 180 182 185 184 194 211 219 218 218 239 241 236 241 239 233 230 226 222 220 218 219 223 215 180 179 183 179 178 178 176 176 175 174 175 186 187 182 175 175 182 187 183
174 171 175 175 185 191 194 198 211 231 245 248 248 241 237 232 224 224 223 214 213 212 197 199 183 176 174 177 184 179 175 175 168 167 172 177 169 173 178 184 180 183 181
161 166 171 178 193 203 199 217 225 234 251 253 255 244 236 225 219 221 224 208 207 206 197 190 177 175 178 177 181 180 177 173 167 169 170 167 171 176 180 180 180 184 188
172 170 184 188 185 195 220 219 234 251 253 245 232 218 226 217 220 226 219 205 212 210 203 194 187 182 178 184 185 184 183 168 161 175 170 173 182 183 182 182 184 190 194
174 173 174 180 195 206 222 242 241 236 235 239 214 217 217 222 210 202 201 197 204 210 219 207 192 186 184 186 183 186 183 178 172 176 176 181 179 189 193 193 195 198 205
170 172 183 192 201 218 232 227 211 203 211 212 214 203 201 192 185 195 182 194 191 194 206 221 206 197 198 191 195 193 186 179 172 177 185 179 185 194 201 201 204 208 215
175 180 183 196 212 214 202 196 195 200 210 193 176 168 170 179 187 182 185 181 179 175 187 205 207 212 199 197 201 194 177 177 176 181 187 193 194 201 203 210 215 221 237
177 178 183 193 188 191 189 196 196 204 201 185 173 171 170 172 177 171 173 172 170 171 180 183 181 183 183 191 198 200 187 184 179 185 197 204 206 201 208 222 226 240 239
Wind_Speed_850mb
56 56 54 54 57 53 55 55 57 56 58 58 58 51 45 39 35 33 32 30 23 20 22 26 28 31 29 22 31 32 32 33 32 29 28 30 34 44 40 40 35 35 35
51 49 46 45 47 41 44 46 45 44 44 44 49 45 39 39 36 33 33 35 33 33 30 30 32 26 27 22 30 35 35 36 34 31 32 32 33 45 44 37 34 38 34
53 49 45 46 48 40 41 41 40 38 39 36 37 32 30 30 37 41 42 39 42 41 37 34 33 29 28 24 28 36 38 39 37 33 34 34 35 47 46 36 32 36 33
56 52 51 54 54 46 44 44 42 42 42 38 33 28 31 32 35 40 42 40 47 45 38 37 38 33 28 25 26 33 40 40 39 36 32 33 37 40 45 32 32 28 35
60 60 59 57 61 55 51 46 44 46 45 40 37 34 34 39 41 43 43 48 46 41 44 42 40 35 30 26 25 31 39 43 40 37 34 33 35 39 46 33 30 24 20
65 62 62 63 63 63 57 51 48 46 51 36 39 44 42 40 41 51 49 51 45 47 43 41 40 42 34 32 27 26 36 43 42 38 37 34 31 43 38 33 28 22 15
67 61 64 67 63 63 59 50 47 53 53 47 38 41 47 53 53 50 52 48 43 38 37 34 35 39 35 35 32 27 34 39 43 40 40 37 37 41 34 30 27 23 22
63 64 60 61 58 58 56 49 49 56 59 48 45 42 41 50 54 56 53 46 41 40 38 38 39 44 46 43 39 33 35 38 40 41 40 38 41 42 39 33 30 23 27
62 60 56 55 54 53 53 48 52 52 57 51 51 44 21 26 35 40 38 37 39 42 41 41 47 49 44 43 40 29 35 39 40 39 39 36 38 39 41 36 30 22 32
58 63 62 56 49 48 49 48 50 51 49 53 50 53 52 33 16 9 22 29 33 33 35 30 34 35 40 43 40 39 37 40 41 39 39 36 38 38 42 38 33 34 29
64 60 60 55 45 46 49 42 39 44 47 49 51 52 46 47 50 39 31 27 27 28 25 25 26 31 36 46 41 41 42 41 43 42 39 35 43 45 44 40 39 43 31
59 59 57 51 43 44 44 39 41 37 38 39 44 45 42 48 39 34 32 31 26 28 26 25 27 30 32 34 32 31 37 42 42 42 36 38 43 48 46 41 42 42 39
55 61 54 50 44 40 39 39 40 40 38 38 37 40 41 33 33 32 30 27 25 21 19 23 18 23 35 38 35 39 34 40 41 39 37 43 45 47 48 44 45 34 42
54 53 51 46 40 42 45 39 36 34 35 32 34 38 34 34 34 29 30 30 25 22 18 16 21 19 27 28 33 34 34 38 41 40 38 52 46 48 46 43 40 35 42
49 47 43 42 39 46 43 37 34 35 32 31 33 30 33 36 33 31 29 25 22 18 18 18 22 18 24 34 39 38 35 36 42 39 40 42 40 45 44 44 44 45 40
49 46 42 38 40 47 41 37 31 28 29 30 31 33 33 33 33 31 25 22 20 23 15 18 24 16 13 46 32 31 30 33 37 38 42 43 38 38 39 44 45 44 43
48 44 42 46 46 42 37 31 26 27 29 31 32 29 27 28 28 29 26 22 23 20 21 18 21 25 31 32 33 32 27 31 37 38 41 41 48 41 36 44 47 43 34
43 43 49 47 42 36 34 28 25 26 27 29 28 29 26 29 27 27 27 25 24 21 23 21 27 38 33 31 28 29 29 30 38 38 35 41 47 36 39 41 43 39 31
48 47 48 46 40 29 26 24 19 18 16 20 26 27 27 30 29 29 27 29 26 25 26 28 40 43 44 38 35 35 33 32 33 38 35 40 40 35 37 35 39 35 36
51 49 45 36 27 22 23 19 21 21 23 24 24 26 30 32 31 30 28 29 29 23 24 35 46 47 49 43 39 40 40 38 40 41 39 33 37 38 37 40 35 38 34
49 43 40 38 32 30 25 29 27 25 27 29 29 29 32 33 33 31 30 33 33 28 31 46 48 49 50 46 43 45 46 43 42 42 39 40 39 41 42 40 40 38 36
51 53 41 38 33 26 27 25 24 29 25 23 24 25 25 33 35 38 34 37 37 38 38 50 53 50 47 49 43 48 49 47 45 41 46 41 39 40 42 39 36 34 32
48 43 39 34 28 26 21 22 21 18 16 18 23 30 28 30 24 27 35 37 34 32 30 34 50 53 51 49 50 47 51 55 55 50 47 45 41 40 38 37 34 32 30
44 43 33 30 25 23 23 18 15 14 10 11 15 25 26 27 28 22 32 31 31 31 29 34 39 42 41 44 42 43 55 54 49 49 46 45 49 42 42 39 35 32 32
41 36 33 29 23 21 20 19 16 13 12 13 15 25 26 33 29 27 33 36 37 31 27 25 35 38 37 39 40 42 53 56 53 50 50 51 46 45 46 37 35 33 30
42 36 29 21 21 20 20 15 12 14 15 20 24 25 22 28 32 27 32 41 42 35 36 36 36 33 36 39 35 35 50 54 62 50 54 50 48 48 35 38 36 32 30
Wind_Direction_850mb
260 260 263 265 264 263 263 264 262 260 261 264 264 261 262 257 232 231 243 261 279 262 273 292 301 303 308 270 241 228 222 217 218 214 218 226 228 225 214 213 220 229 232
261 261 262 264 266 269 270 267 260 258 261 268 269 260 261 254 230 234 244 255 281 280 278 282 279 286 296 272 242 231 224 220 220 218 222 225 227 220 216 219 230 228 231
263 269 271 272 274 276 274 270 259 254 254 266 265 253 246 250 238 249 255 258 269 267 265 266 269 280 289 277 247 235 226 222 223 221 225 226 226 219 218 220 230 231 228
266 272 276 279 277 269 270 269 264 258 256 257 257 254 242 245 249 260 261 261 263 255 259 266 270 277 283 275 254 238 229 224 224 223 225 227 224 223 213 235 229 228 222
266 271 276 278 279 268 263 268 263 255 253 254 258 253 242 244 248 263 266 269 258 266 269 270 265 258 264 270 266 242 228 225 223 220 221 226 223 220 210 227 221 227 233
263 266 271 270 270 263 257 258 256 253 251 257 265 258 251 254 250 264 267 266 272 272 266 257 252 253 248 258 252 245 226 221 221 221 221 224 215 199 216 225 217 228 209
255 268 272 266 263 258 255 259 255 246 252 251 250 241 245 249 255 266 266 269 274 267 260 259 258 244 247 252 247 249 223 220 220 217 220 221 208 201 208 208 213 211 208
264 272 268 267 262 255 250 245 242 241 245 248 230 232 241 254 260 267 267 272 260 262 259 264 261 253 255 248 245 247 221 218 218 218 216 220 211 210 210 207 211 205 205
267 262 262 262 259 256 249 247 243 234 237 240 243 238 240 248 264 270 267 263 259 261 264 265 261 256 247 244 236 231 220 216 217 217 214 219 210 212 211 216 210 215 209
258 257 257 257 255 250 243 251 239 235 236 240 240 238 242 246 236 278 268 274 264 262 265 269 254 245 238 238 231 230 222 218 214 216 215 217 206 202 204 199 194 200 192
250 256 248 248 244 240 245 236 232 233 237 243 244 240 237 243 249 258 277 279 270 260 266 265 258 246 240 232 236 236 226 216 210 212 212 211 202 196 196 190 184 193 191
242 245 240 240 240 242 243 222 229 231 235 246 248 244 246 245 245 245 256 272 281 280 267 262 257 239 229 223 230 225 216 206 206 213 210 207 200 193 197 191 196 197 195
234 230 236 237 242 251 212 224 223 229 233 246 238 233 237 245 245 252 256 262 274 278 271 252 244 234 224 237 218 212 202 200 202 208 201 201 201 197 196 198 192 192 188
235 236 239 243 242 223 218 226 222 220 230 230 226 233 238 242 243 244 247 252 263 256 265 248 232 245 236 207 205 204 199 200 198 200 199 194 196 199 195 189 186 189 193
237 235 242 237 229 199 218 215 215 218 225 225 229 238 240 240 240 245 257 244 245 238 248 245 234 233 215 195 188 195 196 201 199 196 193 192 196 199 187 187 189 189 194
236 231 228 216 200 200 210 201 210 216 221 232 237 238 239 236 241 249 237 234 239 244 249 244 228 198 147 175 182 183 183 184 184 188 187 185 192 195 193 183 186 189 191
226 225 203 190 194 195 193 195 206 219 232 233 236 227 232 231 240 241 238 233 227 229 237 226 209 184 172 160 170 170 173 183 178 180 183 178 190 196 199 182 185 187 190
210 189 184 186 187 194 196 209 217 238 233 231 225 227 233 234 238 232 232 230 220 223 230 209 190 181 184 171 173 167 178 177 185 183 179 183 190 197 188 180 182 188 192
178 180 182 185 184 194 211 219 218 218 239 241 236 241 239 233 230 226 222 220 218 219 223 215 180 179 183 179 178 178 176 176 175 174 175 186 187 182 175 175 182 187 183
174 171 175 175 185 191 194 198 211 231 245 248 248 241 237 232 224 224 223 214 213 212 197 199 183 176 174 177 184 179 175 175 168 167 172 177 169 173 178 184 180 183 181
161 166 171 178 193 203 199 217 225 234 251 253 255 244 236 225 219 221 224 208 207 206 197 190 177 175 178 177 181 180 177 173 167 169 170 167 171 176 180 180 180 184 188
172 170 184 188 185 195 220 219 234 251 253 245 232 218 226 217 220 226 219 205 212 210 203 194 187 182 178 184 185 184 183 168 161 175 170 173 182 183 182 182 184 190 194
174 173 174 180 195 206 222 242 241 236 235 239 214 217 217 222 210 202 201 197 204 210 219 207 192 186 184 186 183 186 183 178 172 176 176 181 179 189 193 193 195 198 205
170 172 183 192 201 218 232 227 211 203 211 212 214 203 201 192 185 195 182 194 191 194 206 221 206 197 198 191 195 193 186 179 172 177 185 179 185 194 201 201 204 208 215
175 180 183 196 212 214 202 196 195 200 210 193 176 168 170 179 187 182 185 181 179 175 187 205 207 212 199 197 201 194 177 177 176 181 187 193 194 201 203 210 215 221 237
177 178 183 193 188 191 189 196 196 204 201 185 173 171 170 172 177 171 173 172 170 171 180 183 181 183 183 191 198 200 187 184 179 185 197 204 206 201 208 222 226 240 239